Skip Page Navigation
NASA JPL Caltech
NASA Logo - Jet Propulsion Laboratory + View the NASA Portal
+ Center for Near-Earth Object Studies
JPL Home Earth Solar System Stars & Galaxies Technology
JPL Solar System Dynamics
BODIES ORBITS EPHEMERIDES TOOLS PHYSICAL DATA DISCOVERY FAQ SITE MAP
JPL Small-Body Database Browser
Search: [ help ]  
160477 (2006 VF148)
Classification: Main-belt Asteroid          SPK-ID: 2160477
Ephemeris | Orbit Diagram | Orbital Elements | Mission Design | Physical Parameters | Discovery Circumstances | Close-Approach Data ]

[ show orbit diagram ]
Orbital Elements at Epoch 2459200.5 (2020-Dec-17.0) TDB
Reference: JPL 13 (heliocentric ecliptic J2000)
 Element Value Uncertainty (1-sigma)   Units 
e .1359858881398407 4.2796e-08  
a 3.086092427704866 2.2786e-08 au
q 2.666427408041782 1.2616e-07 au
i 12.39148011431912 4.9684e-06 deg
node 87.9162221078595 2.0101e-05 deg
peri 97.98554178709767 2.7044e-05 deg
M 140.2742857931347 1.7011e-05 deg
tp 2458428.908587150607
(2018-Nov-06.40858715)
9.4319e-05 TDB
period 1980.212603152504
5.42
2.1931e-05
6.004e-08
d
yr
n .1817986611270321 2.0135e-09 deg/d
Q 3.505757447367948 2.5885e-08 au
  Orbit Determination Parameters
   # obs. used (total)      721  
   data-arc span      8593 days (23.53 yr)  
   first obs. used      1997-03-05  
   last obs. used      2020-09-13  
   planetary ephem.      DE431  
   SB-pert. ephem.      SB431-N16  
   condition code      0  
   norm. resid. RMS      .49297  
   source      ORB  
   producer      Otto Matic  
   solution date      2020-Nov-12 12:27:17  

Additional Information
 Earth MOID = 1.70245 au 
 Jupiter MOID = 1.6417 au 
 T_jup = 3.176 
[ show covariance matrix ]

Ephemeris | Orbit Diagram | Orbital Elements | Mission Design | Physical Parameters | Discovery Circumstances | Close-Approach Data ]

Physical Parameter Table
Parameter Symbol Value Units Sigma Reference Notes
absolute magnitude H 14.65   n/a E2021B55  
diameter diameter 6.619 km 0.270 urn:nasa:pds:neowise_diameters_albedos::2.0[mainbelt] (http://adsabs.harvard.edu/abs/2011ApJ...741...68M)  
geometric albedo albedo 0.070   0.006 urn:nasa:pds:neowise_diameters_albedos::2.0[mainbelt] (http://adsabs.harvard.edu/abs/2011ApJ...741...68M)  

160477 (2006 VF148)          Discovered 2006-Nov-15 by Mt. Lemmon Survey at Mount Lemmon
Reference: 20070730/Numbers.arcLast Updated: 2007-08-06

[ show close-approach data ]
Alternate Designations
 2006 VF148 = 2000 WZ162 
Ephemeris | Orbit Diagram | Orbital Elements | Mission Design | Physical Parameters | Discovery Circumstances | Close-Approach Data ]
ABOUT SSD CREDITS/AWARDS PRIVACY/COPYRIGHT GLOSSARY LINKS
FirstGov 2021-Apr-12 20:44 UT
(server date/time)  
NASA Home Page
Site Manager:   Ryan S. Park
Webmaster  Alan B. Chamberlin